Gainesville, GA

4:21 AM EDT on May 22, 2018 (GMT -0400)
Gilmer Memorial

Weather History for KGVL - May, 2018

Change the Weather History Date:

Thursday, May 17, 2018

  Actual Average Record
Temperature  
Mean Temperature 73 °F 68 °F  
Max Temperature 80 °F 78 °F 91 °F (1944)
Min Temperature 66 °F 58 °F 39 °F (1940)
Cooling Degree Days 8 4  
Month to date cooling degree days 115 51  
Year to date cooling degree days 143 90  
Growing Degree Days 22 (Base 50)    
Moisture  
Dew Point 68 °F    
Average Humidity 84    
Maximum Humidity 100    
Minimum Humidity 67    
Precipitation  
Precipitation 0.29 in 0.13 in 1.25 in (2003)
Month to date precipitation 3.60 2.16  
Year to date precipitation 21.70 21.04  
Sea Level Pressure  
Sea Level Pressure 29.92 in    
Wind  
Wind Speed 4 mph (East)    
Max Wind Speed 14 mph    
Max Gust Speed 18 mph    
Visibility 6 miles    
Events Rain , Thunderstorm    
T = Trace of Precipitation, MM = Missing Value Source: NWS Daily Summary

Daily Weather History Graph

Daily Weather History Graph

Search for Another Location

Airport or City:

Astronomy

May. 17, 2018 Rise Set
Actual Time 6:31 AM EDT 8:31 PM EDT
Civil Twilight 6:03 AM EDT 8:59 PM EDT
Nautical Twilight 5:30 AM EDT 9:33 PM EDT
Astronomical Twilight 4:53 AM EDT 10:10 PM EDT
Moon 8:34 AM EDT (5/17) 11:03 PM EDT (5/17)
Length of Visible Light 14h 55m
Length of Day
14h 00m
Waxing Crescent, 7% of the Moon is Illuminated
May 17
Waxing Crescent
May 21
First Quarter
May 29
Full
Jun 6
Last Quarter
Jun 13
New

Hourly Weather History & Observations

Time (EDT) Temp. Dew Point Humidity Pressure Visibility Wind Dir Wind Speed Gust Speed Precip Events Conditions
12:09 AM 69.1 °F 69.1 °F 100% 29.95 in 10.0 mi East 5.8 mph - N/A   Overcast
12:21 AM 68.0 °F 68.0 °F 100% 29.95 in 7.0 mi East 5.8 mph - 0.00 in Rain Light Rain
12:53 AM 68.0 °F 68.0 °F 100% 29.91 in 4.0 mi East 4.6 mph - 0.00 in   Overcast
1:00 AM 68.0 °F 68.0 °F 100% 29.95 in 2.0 mi East 4.6 mph - N/A   Overcast
1:05 AM 68.0 °F 68.0 °F 100% 29.95 in 1.5 mi ESE 5.8 mph - N/A   Overcast
1:11 AM 68.0 °F 68.0 °F 100% 29.95 in 2.0 mi East 4.6 mph - N/A   Overcast
1:15 AM 68.0 °F 68.0 °F 100% 29.95 in 3.0 mi ESE 5.8 mph - N/A   Overcast
1:44 AM 68.0 °F 68.0 °F 100% 29.95 in 8.0 mi ESE 4.6 mph - N/A   Overcast
1:53 AM 68.0 °F 68.0 °F 100% 29.91 in 10.0 mi East 4.6 mph - N/A   Overcast
2:31 AM 68.0 °F 68.0 °F 100% 29.94 in 10.0 mi ENE 5.8 mph - N/A   Overcast
2:38 AM 68.0 °F 68.0 °F 100% 29.94 in 10.0 mi ENE 4.6 mph - N/A   Overcast
2:53 AM 68.0 °F 68.0 °F 100% 29.90 in 10.0 mi East 4.6 mph - N/A   Overcast
3:06 AM 68.0 °F 68.0 °F 100% 29.93 in 10.0 mi East 4.6 mph - N/A   Overcast
3:19 AM 68.0 °F 68.0 °F 100% 29.93 in 4.0 mi ESE 5.8 mph - N/A   Overcast
3:27 AM 66.9 °F 66.9 °F 100% 29.93 in 2.0 mi East 4.6 mph - N/A   Overcast
3:36 AM 66.9 °F 66.9 °F 100% 29.93 in 1.8 mi East 3.5 mph - N/A   Overcast
3:49 AM 66.2 °F 66.2 °F 100% 29.93 in 2.0 mi East 3.5 mph - N/A   Overcast
3:53 AM 66.9 °F 66.9 °F 100% 29.89 in 2.0 mi East 3.5 mph - N/A   Overcast
4:23 AM 66.9 °F 66.9 °F 100% 29.93 in 1.8 mi ESE 4.6 mph - N/A   Overcast
4:53 AM 66.9 °F 66.9 °F 100% 29.88 in 2.5 mi East 3.5 mph - N/A   Overcast
5:01 AM 66.9 °F 66.9 °F 100% 29.92 in 3.0 mi East 4.6 mph - N/A   Overcast
5:09 AM 66.9 °F 66.9 °F 100% 29.92 in 4.0 mi East 4.6 mph - N/A   Overcast
5:13 AM 66.9 °F 66.9 °F 100% 29.92 in 2.5 mi East 4.6 mph - N/A   Overcast
5:22 AM 66.9 °F 66.9 °F 100% 29.92 in 2.0 mi ESE 4.6 mph - N/A   Overcast
5:30 AM 66.9 °F 66.9 °F 100% 29.92 in 2.0 mi ESE 4.6 mph - N/A   Overcast
5:40 AM 66.9 °F 66.9 °F 100% 29.93 in 1.8 mi ESE 5.8 mph - N/A   Overcast
5:53 AM 66.9 °F 66.9 °F 100% 29.89 in 2.0 mi ESE 3.5 mph - N/A   Overcast
6:03 AM 66.9 °F 66.9 °F 100% 29.92 in 2.5 mi ESE 4.6 mph - N/A   Overcast
6:26 AM 66.0 °F 66.0 °F 100% 29.92 in 2.0 mi East 5.8 mph - N/A   Overcast
6:33 AM 66.0 °F 66.0 °F 100% 29.92 in 1.5 mi East 4.6 mph - N/A   Overcast
6:42 AM 66.0 °F 66.0 °F 100% 29.93 in 0.8 mi ESE 4.6 mph - N/A   Overcast
6:53 AM 66.0 °F 66.0 °F 100% 29.89 in 0.8 mi East 4.6 mph - N/A   Overcast
7:07 AM 66.0 °F 66.0 °F 100% 29.93 in 1.2 mi ENE 3.5 mph - N/A   Overcast
7:11 AM 66.0 °F 66.0 °F 100% 29.93 in 2.0 mi East 3.5 mph - N/A   Overcast
7:14 AM 66.9 °F 66.9 °F 100% 29.93 in 3.0 mi ENE 3.5 mph - N/A   Overcast
7:53 AM 66.9 °F 66.9 °F 100% 29.90 in 4.0 mi East 4.6 mph - N/A   Overcast
8:07 AM 66.9 °F 66.9 °F 100% 29.94 in 6.0 mi East 4.6 mph - N/A   Overcast
8:34 AM 66.0 °F 66.0 °F 100% 29.95 in 2.5 mi East 8.1 mph - N/A   Overcast
8:42 AM 66.9 °F 66.9 °F 100% 29.95 in 2.0 mi East 8.1 mph - N/A   Overcast
8:53 AM 66.0 °F 66.0 °F 100% 29.91 in 1.8 mi East 8.1 mph - N/A   Overcast
9:03 AM 66.0 °F 66.0 °F 100% 29.95 in 2.0 mi East 6.9 mph - N/A   Overcast
9:10 AM 66.0 °F 66.0 °F 100% 29.95 in 3.0 mi East 5.8 mph - N/A   Overcast
9:18 AM 66.9 °F 66.9 °F 100% 29.95 in 8.0 mi ENE 6.9 mph - N/A   Overcast
9:31 AM 66.9 °F 66.9 °F 100% 29.96 in 8.0 mi East 4.6 mph - N/A   Overcast
9:53 AM 66.9 °F 66.9 °F 100% 29.92 in 10.0 mi East 5.8 mph - N/A   Overcast
10:10 AM 66.9 °F 66.9 °F 100% 29.96 in 9.0 mi East 4.6 mph - N/A   Overcast
10:41 AM 69.1 °F 68.0 °F 96% 29.96 in 10.0 mi ENE 4.6 mph - N/A   Overcast
10:53 AM 69.1 °F 66.9 °F 93% 29.93 in 10.0 mi NE 3.5 mph - N/A   Overcast
11:53 AM 70.0 °F 66.9 °F 90% 29.94 in 10.0 mi Calm Calm - 0.00 in   Overcast
12:39 PM 73.0 °F 68.0 °F 84% 29.96 in 10.0 mi East 6.9 mph - N/A   Overcast
12:53 PM 72.0 °F 66.9 °F 84% 29.92 in 10.0 mi ESE 6.9 mph - N/A   Overcast
1:41 PM 75.0 °F 68.0 °F 79% 29.94 in 10.0 mi East 4.6 mph - N/A   Overcast
1:53 PM 75.9 °F 68.0 °F 76% 29.90 in 10.0 mi ENE 8.1 mph - N/A   Mostly Cloudy
2:05 PM 75.0 °F 68.0 °F 79% 29.94 in 10.0 mi ESE 4.6 mph - N/A   Mostly Cloudy
2:53 PM 77.0 °F 66.9 °F 71% 29.87 in 10.0 mi Variable 4.6 mph - N/A   Mostly Cloudy
3:53 PM 79.0 °F 66.0 °F 64% 29.85 in 10.0 mi ESE 4.6 mph - N/A   Clear
4:53 PM 78.1 °F 66.9 °F 68% 29.84 in 10.0 mi East 6.9 mph - N/A   Mostly Cloudy
5:53 PM 75.9 °F 68.0 °F 76% 29.84 in 10.0 mi East 5.8 mph - N/A   Scattered Clouds
6:32 PM 79.0 °F 68.0 °F 69% 29.88 in 10.0 mi ESE 6.9 mph - N/A Thunderstorm Partly Cloudy
6:46 PM 75.0 °F 68.0 °F 79% 29.89 in 10.0 mi ESE 11.5 mph - N/A   Mostly Cloudy
6:53 PM 72.0 °F 69.1 °F 91% 29.85 in 10.0 mi SE 9.2 mph - N/A   Mostly Cloudy
7:02 PM 70.0 °F 70.0 °F 100% 29.89 in 3.0 mi SE 8.1 mph - 0.03 in Rain Rain
7:04 PM 70.0 °F 69.1 °F 97% 29.89 in 1.8 mi SE 8.1 mph - 0.09 in Rain Heavy Rain
7:06 PM 69.1 °F 69.1 °F 100% 29.89 in 1.2 mi SE 8.1 mph - 0.13 in Rain Heavy Rain
7:11 PM 69.1 °F 68.0 °F 96% 29.89 in 0.8 mi ESE 5.8 mph - 0.19 in Rain Heavy Rain
7:15 PM 69.1 °F 68.0 °F 96% 29.89 in 1.0 mi SE 5.8 mph - 0.23 in Rain Heavy Rain
7:23 PM 68.0 °F 68.0 °F 100% 29.89 in 1.2 mi Calm Calm - 0.29 in Rain Heavy Rain
7:28 PM 69.1 °F 69.1 °F 100% 29.89 in 2.0 mi Calm Calm - 0.29 in Rain Light Rain
7:30 PM 69.1 °F 69.1 °F 100% 29.89 in 3.0 mi Calm Calm - 0.29 in Rain Light Rain
7:53 PM 70.0 °F 69.1 °F 97% 29.86 in 10.0 mi East 3.5 mph - 0.29 in   Mostly Cloudy
8:53 PM 70.0 °F 69.1 °F 97% 29.86 in 10.0 mi ENE 4.6 mph - N/A   Mostly Cloudy
9:53 PM 70.0 °F 69.1 °F 97% 29.88 in 10.0 mi Calm Calm - N/A   Mostly Cloudy
10:39 PM 69.1 °F 69.1 °F 100% 29.92 in 10.0 mi Calm Calm - N/A   Mostly Cloudy
10:53 PM 68.0 °F 68.0 °F 100% 29.88 in 10.0 mi Calm Calm - N/A   Overcast
11:41 PM 69.1 °F 69.1 °F 100% 29.92 in 10.0 mi Calm Calm - 0.00 in Rain Light Rain
11:53 PM 69.1 °F 69.1 °F 100% 29.88 in 10.0 mi Calm Calm - 0.00 in   Scattered Clouds